Weather History for Kansas City International, MO

Change the Weather History Date:

Thursday, August 2, 2012

  Actual Average Record
Temperature  
Mean Temperature 83 °F 78 °F  
Max Temperature 95 °F 89 °F 107 °F (2011)
Min Temperature 71 °F 68 °F 57 °F (1986)
Degree Days  
Heating Degree Days 0 0  
Month to date heating degree days 0 0  
Since 1 June heating degree days 9 9  
Since 1 July heating degree days 0 0  
Cooling Degree Days 18 13  
Month to date cooling degree days 42 27  
Year to date cooling degree days 1330 823  
Since 1 June cooling degree days 1061 707  
Growing Degree Days 33 (Base 50)    
Moisture  
Dew Point 67 °F    
Average Humidity 70    
Maximum Humidity 100    
Minimum Humidity 39    
Precipitation  
Precipitation 0.16 in 0.12 in 2.22 in (1910)
Month to date precipitation 0.16 0.24  
Year to date precipitation 13.79 23.75  
Snow  
Snow 0.00 in 0.00 in 0.00 in ()
Month to date snowfall 0.0 0.0  
Since 1 June snowfall 0.0 0.0  
Since 1 July snowfall 0.0 0.0  
Snow Depth 0.00 in    
Sea Level Pressure  
Sea Level Pressure 29.77 in    
Wind  
Wind Speed 6 mph (NNW)    
Max Wind Speed 31 mph    
Max Gust Speed 44 mph    
Visibility 10 miles    
Events Rain , Thunderstorm    
T = Trace of Precipitation, MM = Missing Value Source: NWS Daily Summary

Daily Weather History Graph

Daily Weather History Graph

Search for Another Location

Airport:

Trip Planner

Search our weather history database for the weather conditions in past years. The results will help you decide how hot, cold, wet, or windy it might be!

Date:

Astronomy

Aug. 02, 2012 Rise Set
Actual Time 6:20 AM CDT 8:29 PM CDT
Civil Twilight 5:50 AM CDT 8:59 PM CDT
Nautical Twilight 5:14 AM CDT 9:35 PM CDT
Astronomical Twilight 4:34 AM CDT 10:14 PM CDT
Moon 8:36 PM CDT (8/2) 6:57 AM CDT (8/2)
Length of Visible Light 15h 08m
Length of Day
14h 09m
Full, 100% of the Moon is Illuminated
Aug 2
Full
Aug 9
Last Quarter
Aug 17
New
Aug 24
First Quarter
Aug 31
Full

Hourly Weather History & Observations

Time (CDT) Temp. Heat Index Dew Point Humidity Pressure Visibility Wind Dir Wind Speed Gust Speed Precip Events Conditions
12:53 AM 86.0 °F 86.8 °F 63.0 °F 46% 29.77 in 10.0 mi East 11.5 mph - N/A   Partly Cloudy
1:53 AM 84.9 °F 85.0 °F 61.0 °F 44% 29.74 in 10.0 mi East 11.5 mph - N/A   Scattered Clouds
2:53 AM 82.9 °F 83.3 °F 61.0 °F 47% 29.72 in 10.0 mi East 11.5 mph - N/A   Scattered Clouds
3:53 AM 82.0 °F 83.0 °F 62.1 °F 51% 29.72 in 10.0 mi ESE 9.2 mph - N/A   Mostly Cloudy
4:53 AM 81.0 °F 82.2 °F 63.0 °F 54% 29.75 in 10.0 mi Calm Calm - N/A   Overcast
5:53 AM 73.0 °F - 66.0 °F 79% 29.85 in 10.0 mi WNW 20.7 mph 35.7 mph 0.00 in Rain Light Rain
6:04 AM 71.6 °F - 66.2 °F 83% 29.88 in 10.0 mi NW 18.4 mph 32.2 mph 0.01 in Rain , Thunderstorm Light Thunderstorms and Rain
6:29 AM 71.6 °F - 68.0 °F 88% 29.88 in 7.0 mi WNW 15.0 mph 21.9 mph 0.07 in Rain Rain
6:53 AM 71.1 °F - 70.0 °F 96% 29.82 in 10.0 mi West 6.9 mph - 0.12 in Rain Light Rain
7:53 AM 72.0 °F - 71.1 °F 97% 29.77 in 10.0 mi SE 4.6 mph - 0.04 in Rain Light Rain
8:53 AM 72.0 °F - 72.0 °F 100% 29.74 in 10.0 mi Calm Calm - 0.00 in Rain Light Rain
9:53 AM 73.0 °F - 71.1 °F 93% 29.71 in 10.0 mi NNE 15.0 mph - 0.00 in   Mostly Cloudy
10:53 AM 75.9 °F - 69.1 °F 79% 29.78 in 10.0 mi North 9.2 mph - N/A   Mostly Cloudy
11:53 AM 81.0 °F 84.1 °F 69.1 °F 67% 29.80 in 10.0 mi East 4.6 mph - N/A   Mostly Cloudy
12:53 PM 84.9 °F 87.1 °F 66.0 °F 53% 29.80 in 10.0 mi Calm Calm - N/A   Mostly Cloudy
1:53 PM 89.1 °F 91.0 °F 64.9 °F 45% 29.79 in 10.0 mi East 3.5 mph - N/A   Mostly Cloudy
2:53 PM 91.9 °F 93.3 °F 64.0 °F 39% 29.78 in 10.0 mi North 4.6 mph - N/A   Mostly Cloudy
3:53 PM 93.0 °F 95.9 °F 66.0 °F 41% 29.76 in 10.0 mi NW 4.6 mph - N/A   Scattered Clouds
4:53 PM 93.0 °F 95.0 °F 64.9 °F 39% 29.75 in 10.0 mi West 5.8 mph - N/A   Scattered Clouds
5:53 PM 93.0 °F 95.9 °F 66.0 °F 41% 29.74 in 10.0 mi Variable 3.5 mph - N/A   Partly Cloudy
6:53 PM 91.9 °F 96.9 °F 69.1 °F 47% 29.74 in 10.0 mi WSW 5.8 mph - N/A   Partly Cloudy
7:53 PM 90.0 °F 94.5 °F 69.1 °F 50% 29.75 in 10.0 mi West 4.6 mph - N/A   Clear
8:53 PM 84.0 °F 88.4 °F 70.0 °F 63% 29.76 in 10.0 mi WNW 4.6 mph - N/A   Partly Cloudy
9:53 PM 82.9 °F 87.0 °F 70.0 °F 65% 29.77 in 10.0 mi WNW 4.6 mph - N/A   Clear
10:53 PM 82.0 °F 85.5 °F 69.1 °F 65% 29.78 in 10.0 mi West 4.6 mph - N/A   Clear
11:53 PM 80.1 °F 82.9 °F 69.1 °F 69% 29.77 in 10.0 mi NW 4.6 mph - N/A   Partly Cloudy